FW4540 Weather Reports


time (UTC)temp
C
wind
direction
speed
KPH
gust
KPH
rain 1hr
cm
rain 24hr
cm
rain mn
cm
humidity
%
barometer
mb
20260507182012 15 360 1.6 4.8 0.00 0.03 0.03 72 13.3
20260507181011 15 22 0.0 3.2 0.00 0.03 0.03 71 13.4
20260507180012 16 360 0.0 6.4 0.00 0.03 0.03 69 13.3
20260507175011 16 45 3.2 9.7 0.00 0.03 0.03 65 13.2
20260507174012 16 45 3.2 8.0 0.00 0.03 0.03 65 13.2
20260507172011 17 45 3.2 9.7 0.00 0.03 0.03 65 13.2
20260507170012 17 45 3.2 8.0 0.00 0.03 0.03 62 13.2
20260507165012 17 22 3.2 8.0 0.00 0.03 0.03 62 13.4
20260507163011 17 360 1.6 6.4 0.00 0.03 0.03 61 13.5
20260507162011 17 45 4.8 9.7 0.00 0.03 0.03 60 13.5
20260507154011 17 45 1.6 4.8 0.00 0.03 0.03 59 13.6
20260507153011 17 22 0.0 3.2 0.00 0.03 0.03 59 13.7
20260507152012 17 67 3.2 6.4 0.00 0.03 0.03 58 13.7
20260507151011 18 270 1.6 3.2 0.00 0.03 0.03 63 13.7
20260507150012 18 270 1.6 4.8 0.00 0.03 0.03 64 13.7
20260507145011 18 315 0.0 3.2 0.00 0.03 0.03 61 13.8
20260507144011 17 22 1.6 3.2 0.00 0.03 0.03 56 14.0
20260507143011 17 90 3.2 6.4 0.00 0.03 0.03 61 14.1
20260507142011 17 360 1.6 12.9 0.00 0.03 0.03 57 14.2
20260507141012 18 90 4.8 11.3 0.00 0.03 0.03 63 14.2
20260507140011 17 67 1.6 8.0 0.00 0.03 0.03 64 14.3
20260507135011 18 315 1.6 6.4 0.00 0.03 0.03 58 14.4
20260507134011 17 67 6.4 11.3 0.00 0.03 0.03 68 14.5
20260507133011 17 67 3.2 8.0 0.00 0.03 0.03 64 14.6
20260507132012 17 45 1.6 11.3 0.00 0.03 0.03 68 14.6
20260507131011 17 45 1.6 6.4 0.00 0.03 0.03 59 14.7
20260507125011 17 45 1.6 6.4 0.00 0.03 0.03 66 14.8
20260507124011 16 67 3.2 9.7 0.00 0.03 0.03 66 15.0
20260507122011 16 270 1.6 6.4 0.00 0.03 0.03 68 14.9
20260507121011 17 292 1.6 8.0 0.00 0.03 0.03 60 15.0
20260507115011 17 157 1.6 9.7 0.00 0.03 0.03 67 15.2
20260507114012 16 225 1.6 6.4 0.00 0.03 0.03 69 15.3
20260507113011 15 0 0.0 0.0 0.00 0.03 0.03 69 15.4
20260507110011 16 225 3.2 8.0 0.00 0.03 0.03 68 15.4
20260507105011 16 270 1.6 9.7 0.00 0.03 0.03 74 15.4
20260507103011 15 270 1.6 6.4 0.00 0.03 0.03 77 15.4
20260507102011 15 337 0.0 3.2 0.00 0.03 0.03 70 15.4
20260507101011 15 180 0.0 3.2 0.00 0.03 0.03 80 15.6
20260507100011 14 67 0.0 3.2 0.00 0.03 0.03 80 15.5
20260507095011 15 67 1.6 8.0 0.00 0.03 0.03 82 15.5
20260507094011 15 45 3.2 9.7 0.00 0.03 0.03 81 15.4
20260507093011 15 270 0.0 4.8 0.00 0.03 0.03 82 15.4
20260507091011 13 45 1.6 8.0 0.00 0.03 0.03 82 15.4
20260507090011 13 0 0.0 0.0 0.00 0.03 0.03 82 15.3
20260507085011 13 0 0.0 0.0 0.00 0.03 0.03 82 15.3
20260507084011 13 0 0.0 0.0 0.00 0.03 0.03 83 15.3
20260507082011 13 0 0.0 0.0 0.00 0.03 0.03 91 15.2
20260507081011 13 0 0.0 0.0 0.00 0.03 0.03 88 15.2
20260507075011 12 90 0.0 4.8 0.00 0.03 0.03 90 15.2
20260507074011 11 0 0.0 0.0 0.00 0.03 0.03 94 15.1
20260507073011 11 0 0.0 0.0 0.00 0.03 0.03 94 15.1
20260507072011 11 0 0.0 0.0 0.00 0.03 0.03 96 15.1
20260507071011 11 0 0.0 0.0 0.00 0.03 0.03 98 15.1
20260507070013 11 0 0.0 0.0 0.00 0.03 0.03 99 15.1
20260507065011 11 0 0.0 0.0 0.00 0.03 0.03 100 15.0
20260507064011 10 0 0.0 0.0 0.00 0.03 0.03 100 15.0
20260507063011 10 0 0.0 0.0 0.00 0.03 0.03 100 14.8
20260507062011 10 0 0.0 0.0 0.00 0.03 0.03 100 14.9
20260507061011 10 0 0.0 0.0 0.00 0.03 0.03 100 14.8
20260507060011 10 0 0.0 0.0 0.00 0.03 0.03 100 14.7
20260507055011 10 135 1.6 3.2 0.00 0.03 0.03 100 14.6
20260507054011 10 0 0.0 0.0 0.00 0.03 0.03 100 14.6
20260507053011 9 0 0.0 0.0 0.00 0.03 0.03 100 14.5
20260507051011 9 0 0.0 0.0 0.00 0.03 0.03 100 14.4
20260507045011 9 0 0.0 0.0 0.00 0.03 0.03 100 14.1
20260507044011 9 0 0.0 0.0 0.03 0.03 0.03 100 14.1
20260507043011 9 0 0.0 0.0 0.03 0.03 0.03 100 14.0
20260507042011 9 0 0.0 0.0 0.03 0.03 0.03 100 14.0
20260507041011 9 0 0.0 0.0 0.03 0.03 0.03 100 14.0
20260507040011 9 0 0.0 0.0 0.03 0.03 0.03 100 14.0
20260507035011 9 0 0.0 0.0 0.03 0.03 0.03 100 13.9
20260507034010 9 0 0.0 0.0 0.00 0.00 0.00 100 13.9
20260507033011 9 0 0.0 0.0 0.00 0.00 0.00 100 13.7
20260507032011 9 0 0.0 0.0 0.00 0.00 0.00 100 13.8
20260507031013 10 0 0.0 0.0 0.00 0.00 0.00 100 13.8
20260507030011 9 0 0.0 0.0 0.00 0.00 0.00 100 13.8
20260507025011 10 0 0.0 0.0 0.00 0.00 0.00 100 13.8
20260507024010 10 0 0.0 0.0 0.00 0.00 0.00 100 13.6
20260507023010 10 0 0.0 0.0 0.00 0.00 0.00 100 13.6
20260507022010 10 0 0.0 0.0 0.00 0.00 0.00 100 13.6
20260507021010 10 0 0.0 0.0 0.00 0.00 0.00 100 13.5
20260507020011 10 0 0.0 0.0 0.00 0.00 0.00 100 13.5
20260507015010 10 0 0.0 0.0 0.00 0.00 0.00 100 13.4
20260507014010 10 0 0.0 0.0 0.00 0.00 0.00 100 13.3
20260507013010 10 0 0.0 0.0 0.00 0.00 0.00 100 13.2
20260507012010 10 0 0.0 0.0 0.00 0.00 0.00 100 13.2
20260507010011 10 0 0.0 0.0 0.00 0.00 0.00 100 13.2
20260507005010 10 0 0.0 0.0 0.00 0.00 0.00 100 13.2
20260507004010 10 0 0.0 0.0 0.00 0.00 0.00 100 13.3
20260507003010 10 0 0.0 0.0 0.00 0.00 0.00 100 13.3
20260507002010 9 0 0.0 0.0 0.00 0.00 0.00 99 13.2
20260507000011 10 0 0.0 0.0 0.00 0.00 0.00 99 13.2
20260506235010 10 0 0.0 0.0 0.00 0.00 0.00 100 13.2
20260506234010 10 0 0.0 0.0 0.00 0.00 0.00 99 13.1
20260506233010 10 0 0.0 0.0 0.00 0.00 0.00 99 13.2
20260506232010 10 0 0.0 0.0 0.00 0.00 0.00 99 13.1
20260506231010 10 0 0.0 0.0 0.00 0.00 0.00 99 13.0
20260506230011 10 0 0.0 0.0 0.00 0.00 0.00 99 13.0
20260506224010 10 0 0.0 0.0 0.00 0.00 0.00 100 12.9
20260506223010 10 0 0.0 0.0 0.00 0.00 0.00 99 12.9
20260506222010 10 0 0.0 0.0 0.00 0.00 0.00 99 12.8
20260506221010 10 0 0.0 0.0 0.00 0.00 0.00 99 12.8
20260506220010 10 0 0.0 0.0 0.00 2.11 2.11 99 12.8
20260506215010 10 0 0.0 0.0 0.00 2.11 2.11 99 12.8
20260506214010 10 0 0.0 0.0 0.00 2.11 2.11 99 12.7
20260506213010 10 0 0.0 0.0 0.00 2.11 2.11 99 12.6
20260506211011 10 0 0.0 0.0 0.00 2.11 2.11 99 12.6
20260506210011 10 0 0.0 0.0 0.00 2.11 2.11 99 12.6
20260506205010 10 0 0.0 0.0 0.00 2.11 2.11 99 12.5
20260506204011 10 0 0.0 0.0 0.00 2.11 2.11 99 12.5
20260506202011 10 0 0.0 0.0 0.00 2.11 2.11 99 12.2
20260506200010 10 0 0.0 0.0 0.00 2.11 2.11 99 12.1
20260506195010 10 0 0.0 0.0 0.00 2.11 2.11 99 12.0
20260506193010 10 0 0.0 0.0 0.00 2.11 2.11 99 11.8
20260506192010 10 0 0.0 0.0 0.00 2.11 2.11 98 11.7
20260506191010 10 0 0.0 0.0 0.00 2.11 2.11 98 11.6
20260506185010 10 135 0.0 4.8 0.03 2.11 2.11 98 11.6
20260506184010 10 135 3.2 6.4 0.05 2.11 2.11 98 11.5
20260506183010 10 135 3.2 8.0 0.05 2.11 2.11 98 11.4